Regional Weather Roundup
Issued by NWS

Home | Current Version | Previous Version | Graphics & Text | Print | Product List | Glossary On
Versions: 1 2 3 4 5 6 7 8 9 10 11 12 13 14 15 16 17 18 19 20 21 22 23 24 25 26 27 28 29 30 31 32 33 34 35 36 37 38 39 40 41 42 43 44 45 46 47 48 49 50
000
ASUS43 KBIS 211810
RWRND

NORTH DAKOTA REGIONAL WEATHER ROUNDUP
NATIONAL WEATHER SERVICE BISMARCK ND
100 PM CDT MON AUG 21 2017

NOTE: "FAIR" INDICATES FEW OR NO CLOUDS BELOW 12,000 FEET WITH NO
SIGNIFICANT WEATHER AND/OR OBSTRUCTIONS TO VISIBILITY.


NDZ001>003-009>011-017-211900-
NORTHWEST NORTH DAKOTA

CITY           SKY/WX    TMP DP  RH WIND       PRES   REMARKS
WILLISTON      MOSUNNY   68  40  35 N17       30.09S
6HR MIN TEMP:  54; 6HR MAX TEMP:  73;

MINOT          SUNNY     71  45  39 NW26G33   29.96R
MINOT AFB      SUNNY     70  46  41 NW20G29   29.95R
$$

NDZ018>021-031>035-040>046-211900-
SOUTHWEST NORTH DAKOTA

CITY           SKY/WX    TMP DP  RH WIND       PRES   REMARKS
BISMARCK       SUNNY     70  57  63 W8        29.97F
6HR MIN TEMP:  57; 6HR MAX TEMP:  73;

DICKINSON      SUNNY     68  41  37 N14       30.06R
GARRISON         N/A     70  44  39 N22G30    29.97R
6HR MIN TEMP:  57; 6HR MAX TEMP:  74; 6HR PCP:  0.01;

HETTINGER ARPT SUNNY     70  38  31 N16       30.08R
$$

NDZ004>008-012>016-024-026-027-054-211900-
NORTHEAST NORTH DAKOTA

CITY           SKY/WX    TMP DP  RH WIND       PRES   REMARKS
GRAND FORKS    CLOUDY    71  55  56 CALM      29.92S
GRND FRKS AFB  CLOUDY    69  55  59 W6        29.93R
DEVILS LAKE    LGT RAIN  63  56  78 CALM      29.93F
$$

NDZ022-023-025-028>030-036>039-047>053-211900-
SOUTHEAST NORTH DAKOTA

CITY           SKY/WX    TMP DP  RH WIND       PRES   REMARKS
FARGO          CLOUDY    69  59  70 S7        29.90F
6HR MIN TEMP:  61; 6HR MAX TEMP:  70; 6HR PCP:  0.01;

JAMESTOWN      CLOUDY    67  56  67 W5        29.91F
$$





USA.gov is the U.S. government's official web portal to all federal, state and local government web resources and services.